Skip Page Navigation
NASA JPL Caltech
NASA Logo - Jet Propulsion Laboratory + View the NASA Portal
+ Center for Near-Earth Object Studies
JPL Home Earth Solar System Stars & Galaxies Technology
JPL Solar System Dynamics
BODIES ORBITS EPHEMERIDES TOOLS PHYSICAL DATA DISCOVERY FAQ SITE MAP
JPL Small-Body Database Browser
Search: [ help ]  
56704 (2000 LC31)
Classification: Main-belt Asteroid          SPK-ID: 2056704
Ephemeris | Orbit Diagram | Orbital Elements | Mission Design | Physical Parameters | Discovery Circumstances ]

[ show orbit diagram ]
Orbital Elements at Epoch 2459000.5 (2020-May-31.0) TDB
Reference: JPL 20 (heliocentric ecliptic J2000)
 Element Value Uncertainty (1-sigma)   Units 
e .06302076004223968 3.8176e-08  
a 2.416974622870554 1.3054e-08 au
q 2.264655045134447 9.3567e-08 au
i 9.412213311801612 4.4271e-06 deg
node 96.84022024839302 2.7934e-05 deg
peri 184.9641941237084 4.7823e-05 deg
M 80.06428314674308 3.9219e-05 deg
tp 2458695.258990306464
(2019-Jul-30.75899031)
0.00014953 TDB
period 1372.481700588898
3.76
1.1119e-05
3.044e-08
d
yr
n .2622985791690576 2.125e-09 deg/d
Q 2.569294200606662 1.3876e-08 au
  Orbit Determination Parameters
   # obs. used (total)      840  
   data-arc span      7504 days (20.54 yr)  
   first obs. used      1999-01-10  
   last obs. used      2019-07-28  
   planetary ephem.      DE431  
   SB-pert. ephem.      SB431-N16  
   condition code      0  
   norm. resid. RMS      .52418  
   source      ORB  
   producer      Otto Matic  
   solution date      2020-Feb-23 11:53:38  

Additional Information
 Earth MOID = 1.24832 au 
 Jupiter MOID = 2.51906 au 
 T_jup = 3.495 
[ show covariance matrix ]

Ephemeris | Orbit Diagram | Orbital Elements | Mission Design | Physical Parameters | Discovery Circumstances ]

Physical Parameter Table
Parameter Symbol Value Units Sigma Reference Notes
absolute magnitude H 15.1   n/a MPO436179  

56704 (2000 LC31)          Discovered 2000-Jun-06 by LONEOS at Anderson Mesa
Reference: 20030318/Numbers.arcLast Updated: 2004-04-19
Ephemeris | Orbit Diagram | Orbital Elements | Mission Design | Physical Parameters | Discovery Circumstances ]
ABOUT SSD CREDITS/AWARDS PRIVACY/COPYRIGHT GLOSSARY LINKS
FirstGov 2020-Jul-06 12:25 UT
(server date/time)  
NASA Home Page
Site Manager:   Ryan S. Park
Webmaster  Alan B. Chamberlin